Location: Newark
(51.2625°N, 13.3939°E)
Time: 13:44:31
(UTC+00:00)

deb Explorer IX - Pass Details

Date: 24 November 2019
Orbit: 545 x 1105 km, 38.8° (Epoch: 06 December)

Event Time Altitude Azimuth Distance (km) Brightness Sun altitude
Rises 02:09:16 0° 259° (W) 3,670 - -41.0°
Reaches altitude 10° 02:12:53 10° 242° (WSW) 2,615 - -40.5°
Maximum altitude 02:16:55 18° 202° (SSW) 1,963 - -39.9°
Drops below altitude 10° 02:20:37 10° 160° (SSE) 2,346 - -39.4°
Exits shadow 02:23:29 - 142° (SE) 3,114 ? -38.9°
Sets 02:23:38 0° 142° (SE) 3,159 ? -38.9°
